User: anonymous   Login
Location: La Tine
(46.4708°N, 7.0525°E)
Time: 12:29:06
(UTC+00:00)
Language:

SJ 16-02 - Orbit

View from above orbital plane
View from above orbital plane
View from above satellite
View from above satellite

Ground track
Ground track

The orbit data is extracted from the following two-line orbital elements,

1 41634U 16043A   21207.16047572  .00000088  00000-0  13293-4 0  9994
2 41634  75.0039  37.8091 0006898  43.6107 316.5630 14.85823705275195
Epoch (UTC): 26 July 2021 03:51:05
Eccentricity: 0.0006898
inclination: 75.0039°
perigee height: 606 km
apogee height: 616 km
right ascension of ascending node: 37.8091°
argument of perigee: 43.6107°
revolutions per day: 14.85823705
mean anomaly at epoch: 316.5630°
orbit number at epoch: 27519

The dashed part of the orbit path shows where the satellite is in the earth's shadow,  

DLR